アトラス彗星

C/2019 M3 ( ATLAS )

English version
Home page
Updated on December 9, 2019

---------------------------------------------------------------------

・ プロフィール

発見日 2019年6月30日
発見光度 19.3等
発見者 Asteroid Terrestrial-Impact Last Alert System (ATLAS) search program

・ 写真集

・ 軌道要素

Epoch 2018 Dec. 28.0 TT = JDT 2458480.5
T 2019 Jan. 3.05221 TT                                  Williams
q   2.4178667            (2000.0)            P               Q
z  -0.0009509      Peri.   87.93487     +0.03690571     +0.90743932
 +/-0.0000076      Node   154.89341     -0.24195409     -0.39826850
e   1.0022991      Incl.   99.43861     +0.96958557     -0.13392566
From 310 observations 2019 June 30-Oct. 25, mean residual 0".5.

・ 光度変化

        m1 = 11.0 + 5 logΔ + 10.0 log r

---------------------------------------------------------------------

軌道要素はM.P.E.C. 2019-V116に掲載されたものです。
光度グラフはComet for Windowsで作成したものです。

---------------------------------------------------------------------

Copyright(C) Seiichi Yoshida (comet@aerith.net). All rights reserved.